When you browse on this site, cookies collect data to enhance your experience and personalize the content and advertising you see.
Visit our Privacy Policy to learn more. By continuing to use the site, you agree to this use of cookies and data.
  • In Hungary
  • List of Countries
  • For 7 days
  • Water Temperature
  • Weather Map
  • News
  • Weather Widgets
  • user-avatar
    Login

    Hourly Weather Novaya Berezovka

    Today, 23 January, Thursday

    Time Temperature Precipitation Wind Pressure Humidity
    00:00 -5°C° 0 mm 5 mps 734 mmHg 81%
    01:00 -5°C° 0 mm 6 mps 734 mmHg 80%
    02:00 -5°C° 0 mm 6 mps 735 mmHg 78%
    03:00 -5°C° 0.1 mm 6 mps 735 mmHg 76%
    04:00 -6°C° 0.1 mm 6 mps 735 mmHg 75%
    05:00 -7°C° 0.1 mm 7 mps 736 mmHg 73%
    06:00 -6°C° 0 mm 6 mps 736 mmHg 72%
    07:00 -8°C° 0 mm 6 mps 737 mmHg 71%
    08:00 -8°C° 0 mm 6 mps 738 mmHg 70%
    09:00 -6°C° 0 mm 6 mps 738 mmHg 71%
    10:00 -6°C° 0 mm 6 mps 739 mmHg 71%
    11:00 -6°C° 0 mm 6 mps 739 mmHg 72%
    12:00 -6°C° 0 mm 6 mps 740 mmHg 67%
    13:00 -6°C° 0 mm 6 mps 740 mmHg 62%
    14:00 -6°C° 0 mm 6 mps 740 mmHg 57%
    15:00 -6°C° 0 mm 5 mps 741 mmHg 60%
    16:00 -6°C° 0 mm 5 mps 741 mmHg 63%
    17:00 -5°C° 0 mm 4 mps 741 mmHg 66%
    18:00 -5°C° 0 mm 4 mps 741 mmHg 67%
    19:00 -5°C° 0 mm 4 mps 742 mmHg 69%
    20:00 -5°C° 0 mm 3 mps 742 mmHg 71%
    21:00 -5°C° 0 mm 3 mps 742 mmHg 72%
    22:00 -5°C° 0 mm 3 mps 742 mmHg 74%
    23:00 -5°C° 0 mm 3 mps 742 mmHg 75%

    Tomorrow, 24 January, Friday

    Time Temperature Precipitation Wind Pressure Humidity
    00:00 -5°C° 0 mm 3 mps 742 mmHg 79%
    01:00 -5°C° 0 mm 3 mps 742 mmHg 83%
    02:00 -5°C° 0 mm 3 mps 741 mmHg 88%
    03:00 -5°C° 0 mm 4 mps 741 mmHg 88%
    04:00 -4°C° 0 mm 4 mps 740 mmHg 89%
    05:00 -4°C° 0 mm 4 mps 739 mmHg 90%
    06:00 -5°C° 0 mm 5 mps 739 mmHg 91%
    07:00 -5°C° 0 mm 5 mps 738 mmHg 91%
    08:00 -5°C° 0 mm 5 mps 738 mmHg 92%
    09:00 -4°C° 0.2 mm 6 mps 737 mmHg 92%
    10:00 -4°C° 0.2 mm 6 mps 737 mmHg 92%
    11:00 -3°C° 0.2 mm 6 mps 736 mmHg 92%
    12:00 -2°C° 0.1 mm 6 mps 736 mmHg 93%
    13:00 -1°C° 0.1 mm 6 mps 735 mmHg 93%
    14:00 -1°C° 0.1 mm 6 mps 735 mmHg 94%
    15:00 +1°C° 0.1 mm 6 mps 734 mmHg 93%
    16:00 +1°C° 0.1 mm 6 mps 734 mmHg 93%
    17:00 0°C° 0.1 mm 7 mps 733 mmHg 92%
    18:00 +1°C° 0 mm 6 mps 734 mmHg 92%
    19:00 +1°C° 0 mm 6 mps 734 mmHg 91%
    20:00 +1°C° 0 mm 6 mps 734 mmHg 91%
    21:00 +1°C° 0 mm 6 mps 734 mmHg 90%
    22:00 +1°C° 0 mm 6 mps 734 mmHg 90%
    23:00 +1°C° 0 mm 6 mps 734 mmHg 89%

    Day after tomorrow, 25 January, Saturday

    Time Temperature Precipitation Wind Pressure Humidity
    00:00 +1°C° 0.2 mm 6 mps 733 mmHg 91%
    01:00 +1°C° 0.2 mm 5 mps 733 mmHg 92%
    02:00 0°C° 0.2 mm 5 mps 733 mmHg 93%
    03:00 0°C° 0.1 mm 5 mps 733 mmHg 93%
    04:00 0°C° 0.1 mm 5 mps 733 mmHg 92%
    05:00 0°C° 0.1 mm 5 mps 733 mmHg 92%
    06:00 0°C° 0.1 mm 5 mps 733 mmHg 91%
    07:00 0°C° 0.1 mm 5 mps 733 mmHg 91%
    08:00 0°C° 0.1 mm 5 mps 732 mmHg 90%
    09:00 0°C° 0 mm 5 mps 733 mmHg 87%
    10:00 0°C° 0 mm 5 mps 733 mmHg 84%
    11:00 -1°C° 0 mm 6 mps 733 mmHg 81%
    12:00 -1°C° 0 mm 6 mps 733 mmHg 79%
    13:00 -1°C° 0 mm 6 mps 733 mmHg 78%
    14:00 -1°C° 0 mm 6 mps 733 mmHg 76%
    15:00 -2°C° 0 mm 6 mps 733 mmHg 77%
    16:00 -2°C° 0 mm 6 mps 733 mmHg 78%
    17:00 -2°C° 0 mm 6 mps 733 mmHg 79%
    18:00 -3°C° 0 mm 6 mps 733 mmHg 81%
    19:00 -3°C° 0 mm 6 mps 734 mmHg 83%
    20:00 -2°C° 0 mm 5 mps 734 mmHg 85%
    21:00 -2°C° 0.3 mm 5 mps 735 mmHg 83%
    22:00 -4°C° 0.3 mm 5 mps 735 mmHg 82%
    23:00 -4°C° 0.3 mm 5 mps 736 mmHg 81%

    26 January, Sunday

    Time Temperature Precipitation Wind Pressure Humidity
    00:00 -4°C° 0 mm 5 mps 736 mmHg 80%
    01:00 -4°C° 0 mm 5 mps 737 mmHg 79%
    02:00 -5°C° 0 mm 5 mps 737 mmHg 78%
    03:00 -5°C° 0 mm 5 mps 738 mmHg 79%
    04:00 -5°C° 0 mm 5 mps 738 mmHg 79%
    05:00 -4°C° 0 mm 4 mps 739 mmHg 80%
    06:00 -4°C° 0 mm 4 mps 740 mmHg 81%
    07:00 -5°C° 0 mm 4 mps 740 mmHg 81%
    08:00 -5°C° 0 mm 4 mps 741 mmHg 82%
    09:00 -4°C° 0 mm 4 mps 742 mmHg 78%
    10:00 -4°C° 0 mm 3 mps 743 mmHg 75%
    11:00 -2°C° 0 mm 3 mps 743 mmHg 71%
    12:00 -2°C° 0 mm 3 mps 743 mmHg 71%
    13:00 -1°C° 0 mm 3 mps 744 mmHg 70%
    14:00 -1°C° 0 mm 3 mps 744 mmHg 70%
    15:00 -2°C° 0 mm 3 mps 744 mmHg 74%
    16:00 -2°C° 0 mm 2 mps 744 mmHg 78%
    17:00 -3°C° 0 mm 2 mps 745 mmHg 83%
    18:00 -3°C° 0 mm 2 mps 745 mmHg 83%
    19:00 -3°C° 0 mm 2 mps 745 mmHg 83%
    20:00 -3°C° 0 mm 2 mps 745 mmHg 83%
    21:00 -3°C° 0 mm 2 mps 745 mmHg 84%
    22:00 -2°C° 0 mm 3 mps 745 mmHg 85%
    23:00 -2°C° 0 mm 3 mps 745 mmHg 86%

    27 January, Monday

    Time Temperature Precipitation Wind Pressure Humidity
    00:00 -2°C° 0 mm 3 mps 745 mmHg 87%
    01:00 -2°C° 0 mm 3 mps 745 mmHg 89%
    02:00 -3°C° 0 mm 4 mps 745 mmHg 90%
    03:00 -2°C° 0 mm 4 mps 744 mmHg 89%
    04:00 -2°C° 0 mm 4 mps 744 mmHg 88%
    05:00 -2°C° 0 mm 4 mps 744 mmHg 87%
    06:00 -2°C° 0 mm 4 mps 744 mmHg 86%
    07:00 -2°C° 0 mm 4 mps 744 mmHg 86%
    08:00 -2°C° 0 mm 4 mps 744 mmHg 85%
    09:00 -2°C° 0 mm 4 mps 744 mmHg 86%
    10:00 -2°C° 0 mm 4 mps 743 mmHg 86%
    11:00 -1°C° 0 mm 4 mps 743 mmHg 87%
    12:00 -1°C° 0 mm 4 mps 743 mmHg 89%
    13:00 -1°C° 0 mm 4 mps 742 mmHg 90%
    14:00 -1°C° 0 mm 4 mps 742 mmHg 92%
    15:00 -2°C° 0.2 mm 4 mps 741 mmHg 94%
    16:00 -2°C° 0.2 mm 4 mps 741 mmHg 95%
    17:00 -2°C° 0.2 mm 4 mps 740 mmHg 97%
    18:00 -1°C° 0.1 mm 4 mps 740 mmHg 97%
    19:00 -1°C° 0.1 mm 4 mps 739 mmHg 97%
    20:00 -1°C° 0.1 mm 4 mps 739 mmHg 97%
    21:00 -1°C° 0.1 mm 4 mps 738 mmHg 97%
    22:00 -1°C° 0.1 mm 4 mps 738 mmHg 97%
    23:00 -2°C° 0.1 mm 4 mps 738 mmHg 97%

    28 January, Tuesday

    Time Temperature Precipitation Wind Pressure Humidity
    00:00 -2°C° 0.2 mm 4 mps 737 mmHg 97%
    01:00 -2°C° 0.2 mm 4 mps 737 mmHg 97%
    02:00 -2°C° 0.2 mm 4 mps 737 mmHg 97%
    03:00 -2°C° 0.1 mm 4 mps 736 mmHg 96%
    04:00 0°C° 0.1 mm 3 mps 736 mmHg 96%
    05:00 0°C° 0.1 mm 3 mps 736 mmHg 96%
    06:00 -1°C° 0.4 mm 4 mps 736 mmHg 96%
    07:00 -1°C° 0.4 mm 4 mps 736 mmHg 96%
    08:00 -1°C° 0.4 mm 4 mps 736 mmHg 96%
    09:00 -1°C° 0 mm 5 mps 737 mmHg 92%
    10:00 -1°C° 0 mm 5 mps 737 mmHg 87%
    11:00 -1°C° 0 mm 5 mps 737 mmHg 82%
    12:00 -1°C° 0 mm 4 mps 738 mmHg 82%
    13:00 -1°C° 0 mm 4 mps 738 mmHg 83%
    14:00 -1°C° 0 mm 4 mps 738 mmHg 83%
    15:00 0°C° 0 mm 3 mps 738 mmHg 86%
    16:00 -1°C° 0 mm 2 mps 739 mmHg 89%
    17:00 -2°C° 0 mm 2 mps 739 mmHg 91%
    18:00 -2°C° 0 mm 2 mps 739 mmHg 92%
    19:00 -2°C° 0 mm 2 mps 739 mmHg 93%
    20:00 -2°C° 0 mm 2 mps 739 mmHg 93%
    21:00 -2°C° 0 mm 2 mps 739 mmHg 92%
    22:00 -2°C° 0 mm 3 mps 739 mmHg 91%
    23:00 -2°C° 0 mm 3 mps 739 mmHg 90%
    Show more